Home   Weather   Corpus Christi   Past weeks

Flag for USA Past Weather in Corpus Christi, Texas, USA — Yesterday and Last 2 Weeks

Now
74 °F

Clear.


Feels Like: 71 °F
Forecast: 73 / 90 °F
Wind: No wind

Location: Corpus Christi International Airport

Current Time: Sep 29, 2016 at 1:55:30 AM

Latest Report: Sep 29, 2016 at 12:51 AM


Visibility: 10 mi

Pressure: 30.05 "Hg

Humidity: 94%

Dew Point: 72 °F

Location of Corpus ChristiLocation

Past Weather in Corpus Christi — Graph

°F

Corpus Christi Temperature Yesterday

Maximum temperature yesterday: 90 °F (at 2:51 PM)
Minimum temperature yesterday: 71 °F (at 5:51 AM)
Average temperature yesterday: 80 °F

High & Low Weather Summary for the Past Weeks

 TemperatureHumidityPressure
High97 °F (Sep 18, 1:51 PM)100% (Sep 17, 6:51 AM)30.08 "Hg (Sep 17, 6:51 AM)
Low70 °F (Sep 27, 5:51 AM)37% (Sep 20, 1:51 PM)29.85 "Hg (Sep 16, 6:51 PM)
Average83 °F77%29.95 "Hg
* Reported Sep 13 11:51 PM — Sep 28 11:51 PM, Corpus Christi, Weather by CustomWeather, © 2016

Note: Actual official high and low records may vary slightly from our data, if they occured in-between our weather recording intervals... More about our weather records

Advertising

Corpus Christi Weather History for the Previous 24 Hours

Scroll right to see more
 ConditionsComfort  
Time TempWeatherWind HumidityBarometerVisibility
11:51 PM
Wed, Sep 28
76 °FClear.No wind88%30.05 "Hg10 mi
10:51 PM78 °FPassing clouds.No wind82%30.04 "Hg10 mi
9:51 PM77 °FPassing clouds.5 mph88%30.03 "Hg10 mi
8:51 PM79 °FPassing clouds.6 mph79%30.01 "Hg10 mi
7:51 PM80 °FPassing clouds.6 mph74%30.01 "Hg10 mi
6:51 PM85 °FScattered clouds.9 mph59%30.00 "Hg10 mi
5:51 PM88 °FBroken clouds.8 mph54%30.00 "Hg10 mi
4:51 PM90 °FBroken clouds.7 mph48%29.99 "Hg10 mi
3:51 PM88 °FBroken clouds.7 mph52%30.00 "Hg10 mi
2:51 PM90 °FScattered clouds.6 mph50%30.01 "Hg10 mi
1:51 PM89 °FPassing clouds.9 mph52%30.03 "Hg10 mi
12:51 PM87 °FPassing clouds.8 mph55%30.05 "Hg10 mi
11:51 AM85 °FPassing clouds.9 mph59%30.07 "Hg10 mi
10:51 AM83 °FPassing clouds.9 mph59%30.08 "Hg10 mi
9:51 AM80 °FPassing clouds.9 mph64%30.06 "Hg10 mi
8:51 AM76 °FPassing clouds.9 mph72%30.04 "Hg10 mi
7:51 AM72 °FPartly sunny.6 mph84%30.02 "Hg10 mi
6:51 AM71 °FPassing clouds.7 mph87%30.01 "Hg10 mi
5:51 AM71 °FPassing clouds.8 mph87%29.99 "Hg10 mi
4:51 AM72 °FPassing clouds.9 mph84%29.98 "Hg10 mi
3:51 AM72 °FPassing clouds.6 mph87%29.98 "Hg10 mi
2:51 AM72 °FPassing clouds.7 mph87%29.99 "Hg10 mi
1:51 AM73 °FPassing clouds.8 mph88%29.99 "Hg10 mi
Weather by CustomWeather, © 2016

See weather overviewHow to use our weather pages